Location: Unspecified
(41.9031°N, 12.4386°E)
Time: 05:10:48
(UTC+02:00)

ISS - Pass Details

Date: 03 April 2020
Orbit: 417 x 423 km, 51.6° (Epoch: 29 March)

Event Time Altitude Azimuth Distance (km) Brightness Sun altitude
Rises 21:00:36 0° 304° (NW) 2,361 1.7 -15.5°
Reaches altitude 10° 21:02:42 10° 305° (NW) 1,495 0.3 -15.9°
Maximum altitude 21:06:03 89° 15° (NNE) 421 -3.9 -16.5°
Enters shadow 21:06:59 45° 125° (SE) 577 -3.6 -16.6°
